Location: Colorado Springs
(38.8340°N, 104.8210°W)
Time: 07:37:15
(UTC-06:00)

OTV 5 (USA 277) - Pass Details

Date: 13 October 2017
Orbit: 404 x 417 km, 43.0° (Epoch: 07 September)

Event Time Altitude Azimuth Distance (km) Brightness Sun altitude
Rises 19:55:32 0° 272° (W) 2,352 ? -18.8°
Reaches altitude 10° 19:57:43 10° 280° (W) 1,490 ? -19.2°
Maximum altitude 20:00:56 42° 353° (N) 610 ? -19.8°
Enters shadow 20:01:14 40° 8° (N) 623 ? -19.9°
